Hourly Data Report for October 11, 2016

All times are specified in Local Standard Time (LST). Add 1 hour to adjust for Daylight Saving Time where and when it is observed.

MONCTON INTL A
NEW BRUNSWICK

46°06'44.000" N
64°40'43.000" W
70.70 m
8103201
71705
YQM

Download Data

Hourly Data (October 2016)
Hourly Data Report for October 11, 2016
Temp Definition
°C
Dew Point Temp Definition
°C
Rel Hum Definition
%
Wind Dir Definition
10's deg

Wind Spd Definition
km/h
Visibility Definition
km
Stn Press Definition
kPa
Hmdx Definition


Wind Chill Definition


Weather Definition


TIME
00:00 Legend Double Dagger 5.0 1.1 76 31 29 24.1 101.10     LegendNANA
01:00 Legend Double Dagger 5.2 0.6 72 32 28 24.1 101.21     LegendNANA
02:00 Legend Double Dagger 4.5 0.5 75 31 23 24.1 101.28     Cloudy
03:00 Legend Double Dagger 2.5 -0.1 83 32 20 24.1 101.36     LegendNANA
04:00 Legend Double Dagger 2.1 -0.7 82 31 21 24.1 101.50     LegendNANA
05:00 Legend Double Dagger 1.6 -1.0 83 31 13 24.1 101.60     Mostly Cloudy
06:00 Legend Double Dagger 1.6 -1.1 82 32 17 24.1 101.68     LegendNANA
07:00 Legend Double Dagger 1.2 -1.0 85 32 11 24.1 101.73     LegendNANA
08:00 Legend Double Dagger 3.0 -0.3 79 32 25 24.1 101.79     Mainly Clear
09:00 Legend Double Dagger 5.5 1.1 73 32 14 24.1 101.90     LegendNANA
10:00 Legend Double Dagger 8.3 2.6 67 34 12 24.1 101.93     LegendNANA
11:00 Legend Double Dagger 9.2 3.0 65 35 8 24.1 101.97     Mainly Clear
12:00 Legend Double Dagger 9.7 1.9 58 28 5 24.1 101.94     LegendNANA
13:00 Legend Double Dagger 10.9 0.9 50 28 8 24.1 101.92     LegendNANA
14:00 Legend Double Dagger 12.6 2.5 50 29 11 24.1 101.88     Clear
15:00 Legend Double Dagger 13.0 2.0 47 27 9 24.1 101.85     LegendNANA
16:00 Legend Double Dagger 12.8 2.7 50 23 12 24.1 101.88     LegendNANA
17:00 Legend Double Dagger 12.0 2.2 51 22 12 24.1 101.88     Clear
18:00 Legend Double Dagger 9.8 2.9 62 19 9 24.1 101.91     LegendNANA
19:00 Legend Double Dagger 8.6 2.9 67 20 9 24.1 101.94     LegendNANA
20:00 Legend Double Dagger 6.8 3.8 81 18 10 24.1 101.96     Clear
21:00 Legend Double Dagger 6.0 3.3 83 19 11 24.1 101.96     LegendNANA
22:00 Legend Double Dagger 5.4 4.1 91 19 12 24.1 101.96     LegendNANA
23:00 Legend Double Dagger 5.2 3.2 87 23 12 24.1 101.99     Clear

Notes on Data Quality.

Legend

  • E = Estimated
  • M = Missing
  • NA = Not Available
  • ‡ = Partner data that is not subject to review by the National Climate Archives
Date modified: